Probability
4 4 3 1 0 0 0 0 0 0 0 0 0 0 0 0 0 0 0 0 0 0 0 0 0 0 0 0 0 0 0 0 0 0 0 0 0 0 1 2 2 2 2 3 3 2 2 1 0
6 4 2 0 0 0 0 0 0 0 0 0 0 0 0 0 0 0 0 0 0 0 0 0 0 0 0 0 0 0 0 0 0 0 0 0 0 0 0 1 2 2 3 3 3 3 2 1 0
5 3 1 0 0 0 0 0 0 0 0 0 0 0 0 0 0 0 0 0 0 0 0 0 0 0 0 0 0 0 0 0 0 0 0 0 0 0 0 1 2 3 3 3 3 3 2 1 0
3 2 1 0 0 0 0 0 0 0 0 0 0 0 0 0 0 0 0 0 0 0 0 0 0 0 0 0 0 0 0 0 0 0 0 0 0 0 0 0 1 2 4 4 3 3 2 1 1
2 2 1 0 0 0 0 0 0 0 0 0 0 0 0 0 0 0 0 1 0 0 0 0 0 0 0 0 0 0 0 0 0 0 0 0 0 0 1 1 0 1 3 4 3 3 3 2 1
2 1 0 0 0 0 0 0 0 0 0 0 0 0 0 0 0 0 0 0 0 0 0 0 0 0 0 0 0 0 0 0 0 0 0 0 0 0 1 1 0 0 1 2 2 2 2 1 1
2 1 0 0 0 0 0 0 0 0 0 0 0 0 0 0 1 1 0 0 0 0 0 0 0 0 0 0 0 0 0 0 0 0 0 0 0 0 1 1 0 0 0 0 1 1 1 1 0
1 0 0 0 0 0 0 0 0 0 0 0 0 1 1 2 2 2 1 0 0 0 0 0 0 0 0 0 0 0 0 0 0 0 0 0 0 0 0 0 0 0 0 0 0 0 0 0 0
0 0 0 0 0 0 0 0 0 0 0 0 0 1 2 3 3 2 1 0 0 0 0 0 0 0 0 0 0 0 0 0 0 0 0 0 0 0 0 0 0 0 0 0 0 0 0 0 0
0 0 0 0 0 0 0 0 0 0 0 0 1 2 4 4 4 3 1 0 0 0 0 0 0 0 0 0 0 0 0 0 0 0 0 0 0 0 0 0 0 0 0 0 0 0 0 0 0
0 0 0 0 0 0 0 0 0 0 0 0 1 3 5 6 5 4 1 0 0 0 0 0 0 0 0 0 0 0 0 0 0 0 0 0 0 0 0 0 0 0 0 0 0 0 0 0 0
0 0 0 0 0 0 0 0 0 0 0 0 1 3 6 6 6 5 3 1 0 0 0 0 0 0 0 0 0 0 0 0 0 0 0 0 0 0 0 0 0 0 0 0 0 0 0 0 0
0 0 0 0 0 0 0 0 0 0 0 0 1 3 5 5 5 5 4 1 0 1 1 0 0 0 0 0 0 0 0 0 0 0 0 0 0 0 0 0 0 0 0 0 0 0 0 0 0
0 0 0 0 0 0 0 0 0 0 0 0 2 3 4 4 4 4 5 3 1 2 2 1 0 0 0 0 0 0 0 0 0 0 0 0 0 0 0 0 0 0 0 0 0 0 0 0 0
0 0 0 0 0 0 0 0 0 0 0 0 1 3 3 3 3 3 4 4 2 3 3 2 1 0 0 0 0 0 0 0 0 0 0 0 0 0 0 0 0 0 0 0 0 0 0 0 0
0 0 0 0 0 0 0 0 0 0 0 0 1 3 3 3 2 1 2 3 2 3 4 4 2 1 1 0 0 0 0 0 0 0 0 0 0 0 0 0 0 0 0 0 0 0 0 0 0
0 0 0 0 0 0 0 0 0 0 0 1 2 3 4 3 1 0 0 1 2 3 4 4 3 3 2 1 0 0 0 0 0 0 0 0 0 0 0 0 0 0 0 0 0 0 0 0 0
0 0 0 0 0 0 0 0 1 1 1 1 2 4 5 3 1 0 0 1 2 3 3 4 3 3 3 2 2 2 2 1 1 1 0 0 0 0 0 0 0 0 0 0 0 0 0 0 0
0 0 0 0 0 0 0 0 1 1 1 0 2 5 6 5 2 1 0 0 1 2 3 3 3 3 3 3 3 4 4 3 2 2 1 0 0 0 0 0 1 2 1 0 0 0 0 0 0
0 0 0 0 0 0 0 0 0 0 0 0 1 4 6 7 5 3 2 1 0 1 3 3 3 4 4 5 5 5 4 4 4 4 3 1 0 0 0 0 2 3 2 1 0 0 0 0 0
0 0 0 0 0 0 0 0 0 0 0 0 1 3 6 8 8 7 5 3 2 1 2 3 4 5 6 7 8 6 5 5 5 6 6 3 2 1 1 0 1 2 3 2 1 0 0 0 0
0 0 0 0 0 0 0 0 0 1 0 0 0 1 4 7 9 8 7 5 4 2 1 2 3 5 7 8 10 10 7 6 5 7 7 6 5 5 3 2 1 1 3 3 2 1 0 0 0
0 0 0 0 0 0 0 0 0 0 0 0 0 1 2 5 7 7 6 6 5 3 1 1 2 4 6 9 11 11 9 6 5 5 7 8 7 6 6 4 3 2 2 3 2 1 0 0 0
0 0 0 0 0 0 0 0 0 0 0 0 0 0 2 3 4 5 6 7 7 6 3 1 1 2 6 10 12 12 9 6 4 5 6 6 5 4 4 5 4 3 2 1 1 0 0 0 0
0 0 0 0 0 0 0 0 0 0 0 0 0 1 2 2 3 4 6 8 9 7 4 2 1 3 7 12 14 13 10 7 5 4 4 3 2 2 2 3 3 1 1 0 0 0 0 0 0
0 0 0 0 0 0 0 0 0 0 0 0 1 2 2 1 1 3 5 8 8 6 4 3 3 5 9 13 15 14 11 8 6 4 4 3 2 2 2 1 1 0 0 0 0 0 0 0 0
0 0 0 0 0 0 0 0 0 0 0 0 1 1 1 1 1 2 3 5 5 3 3 4 5 6 8 10 13 13 11 9 8 6 5 5 4 3 2 1 0 0 0 0 0 0 0 0 0
0 0 0 0 0 0 0 0 0 0 0 0 0 0 0 0 1 2 1 1 1 2 3 4 4 5 6 8 9 10 10 9 9 8 7 7 5 3 1 1 0 0 0 0 0 0 0 0 0
0 0 0 0 0 0 0 0 0 0 0 0 0 0 0 0 1 1 1 0 0 1 2 2 2 4 6 6 7 7 8 9 9 9 8 7 5 3 2 2 1 0 0 0 0 0 1 1 0
0 0 0 0 0 0 0 0 0 0 0 0 0 0 0 0 0 1 0 0 0 0 1 1 1 3 6 6 6 6 7 8 9 9 8 7 5 4 4 4 1 0 0 0 0 0 1 1 1
Wind_Speed
8 9 6 2 2 1 4 5 6 6 6 7 7 7 11 12 9 8 3 6 9 10 10 10 11 11 11 11 11 12 12 12 12 12 13 13 12 12 12 12 11 10 11 11 11 11 11 10 9
9 6 3 2 2 1 4 5 7 7 6 5 6 9 11 12 10 8 4 7 9 11 10 10 11 11 11 12 11 12 12 12 13 13 13 13 12 13 12 13 13 13 13 12 12 11 11 10 10
11 7 4 2 1 3 5 6 7 7 6 5 7 9 8 8 9 6 6 7 10 11 11 10 11 11 11 12 12 12 12 12 12 13 13 13 12 13 13 13 13 13 13 13 12 11 11 10 10
5 3 3 1 4 5 5 6 6 7 6 6 6 9 9 7 6 8 8 8 11 11 11 10 11 11 11 12 12 12 12 12 12 12 12 12 13 13 13 13 13 13 13 13 12 11 11 10 10
3 3 2 1 4 5 5 7 6 6 6 7 8 11 10 9 10 10 6 7 10 11 11 10 11 11 11 12 12 11 11 11 11 12 12 12 12 13 13 13 13 13 13 13 12 12 11 11 11
3 3 1 2 5 4 5 5 5 7 7 8 9 10 9 8 8 7 6 6 9 11 11 11 11 12 11 12 11 11 11 11 11 11 11 11 11 12 13 13 13 13 13 13 13 12 11 11 10
3 2 1 2 4 3 5 4 5 5 6 6 7 8 8 8 7 7 6 7 8 9 10 10 10 10 11 11 11 10 10 10 9 9 9 9 10 11 13 13 13 13 13 12 12 11 11 11 10
3 2 1 1 3 4 5 4 5 5 5 6 5 6 8 10 8 7 6 6 7 7 7 8 9 9 8 8 9 9 8 8 7 6 6 7 8 9 11 11 11 11 11 11 10 9 9 9 9
4 1 1 1 2 3 5 4 4 4 5 6 8 9 11 12 9 7 6 6 6 6 6 7 7 7 7 7 9 7 7 5 5 4 4 4 4 5 6 10 9 9 9 8 7 7 6 6 6
2 0 0 0 1 2 4 3 3 4 4 5 8 11 12 10 8 7 6 6 7 5 5 6 6 7 7 6 6 4 4 4 3 3 3 1 3 4 6 8 7 6 6 5 4 4 4 3 2
2 1 1 1 2 2 2 2 1 3 3 5 8 11 11 9 7 6 6 6 6 6 5 5 5 6 6 4 4 2 2 2 1 3 4 3 3 3 4 3 3 2 3 2 2 2 1 2 2
2 3 2 1 1 2 2 2 1 1 2 4 7 9 9 9 8 6 6 6 6 6 4 4 4 5 5 5 3 2 2 2 2 2 3 3 2 2 2 2 2 1 1 1 1 1 2 4 4
4 3 2 2 2 2 2 2 1 1 2 3 7 9 8 7 7 6 6 7 7 7 5 4 3 4 4 4 2 3 2 2 3 2 2 4 2 2 2 2 2 2 2 2 2 2 4 4 5
2 2 2 3 3 3 4 4 4 3 4 5 6 7 8 7 6 6 6 6 7 8 7 5 4 4 4 4 3 3 2 2 3 2 1 3 3 2 2 2 2 1 2 2 2 3 3 3 3
4 4 4 4 4 4 4 5 7 6 6 7 7 7 6 7 7 6 6 6 6 7 7 5 4 3 4 5 3 3 2 3 2 1 1 2 3 3 3 2 2 2 2 3 3 4 3 3 4
7 6 5 6 7 7 7 6 6 6 7 7 7 7 7 6 7 6 6 6 6 7 7 6 5 4 4 4 3 2 2 3 2 2 1 2 3 3 3 2 1 2 3 3 2 3 3 3 3
7 7 7 6 7 7 8 5 5 6 7 7 7 8 8 7 7 6 6 6 6 7 7 7 5 4 4 4 3 2 2 3 2 2 1 1 2 3 3 2 2 3 3 2 2 2 2 2 2
5 6 6 5 5 7 7 6 6 8 8 8 8 8 9 9 8 7 6 7 6 7 7 7 7 5 4 3 3 2 2 2 2 2 2 1 2 3 3 2 2 3 2 2 2 2 2 2 1
7 7 7 5 4 6 7 7 8 9 8 8 7 8 9 9 9 8 8 7 7 6 6 7 7 6 4 3 3 2 2 2 2 2 2 2 1 2 3 2 2 2 2 2 2 2 2 1 1
10 9 7 5 4 6 7 8 7 7 9 8 7 7 8 8 10 9 9 8 8 7 6 7 6 6 5 3 2 2 2 2 2 1 1 2 2 2 2 3 2 2 2 2 2 2 1 1 1
10 8 7 6 7 8 8 8 8 7 8 7 7 6 6 8 9 9 9 9 8 7 7 6 6 7 6 5 3 2 2 1 1 1 1 1 2 1 1 2 2 2 2 2 2 2 2 0 1
8 7 7 8 8 6 7 5 6 6 7 8 7 6 5 5 7 8 8 8 8 7 6 7 7 7 7 6 5 4 3 3 2 2 2 2 2 2 2 2 2 2 2 2 2 2 2 1 0
7 7 8 10 9 9 9 7 4 6 6 6 6 6 5 5 7 7 7 8 8 7 6 6 6 7 7 7 6 5 3 3 2 2 3 2 2 2 2 2 2 2 2 2 1 2 1 1 1
7 9 10 10 8 9 9 7 3 3 4 5 5 5 5 4 6 7 7 7 6 5 5 5 5 5 6 7 7 6 5 4 3 3 3 2 2 2 2 3 2 2 2 2 2 2 2 2 1
9 7 5 5 6 6 6 6 2 3 3 3 4 4 5 4 4 5 7 7 6 6 5 5 6 5 6 6 7 7 6 5 5 4 3 3 2 2 2 2 2 2 2 2 2 2 2 2 2
8 8 5 4 5 5 5 3 3 5 5 4 4 4 4 4 5 4 5 5 5 6 6 5 6 6 6 6 6 6 6 4 4 4 3 3 2 3 3 2 2 2 2 2 2 1 2 2 2
7 7 8 7 9 8 5 2 2 4 5 4 4 5 4 4 4 5 5 5 4 5 5 5 6 5 6 6 5 5 6 5 4 5 4 3 3 3 3 3 3 2 2 2 2 1 2 2 2
9 8 6 6 6 6 5 3 2 4 4 4 4 4 4 4 3 4 4 4 4 4 4 4 4 5 5 5 5 4 4 5 4 4 4 4 4 3 3 3 3 3 2 2 2 2 2 2 2
7 8 7 6 6 5 4 2 1 3 4 4 5 5 4 4 3 4 3 3 3 3 3 3 3 3 4 5 4 4 4 4 4 4 5 4 4 4 3 3 3 3 3 3 3 3 3 2 2
7 8 7 6 6 6 5 2 2 4 4 5 5 4 3 3 3 3 3 3 3 3 3 2 2 2 3 3 4 4 4 4 4 4 4 4 4 4 4 3 3 3 3 3 3 3 3 3 2
Wind_Direction
263 251 247 259 256 229 61 67 72 61 57 55 48 53 58 50 54 90 130 101 95 97 95 81 71 69 66 67 67 68 70 70 70 70 70 69 67 66 63 59 61 71 78 78 73 69 65 62 59
270 271 265 242 260 88 74 76 77 73 76 71 60 62 69 69 76 98 110 99 102 99 94 84 77 72 70 71 71 71 71 71 71 70 70 69 69 69 65 62 63 71 75 73 70 67 64 61 58
261 265 267 256 7 66 94 88 92 91 80 76 77 63 61 73 88 107 117 118 106 98 96 91 83 77 74 75 75 74 73 72 72 71 71 70 69 68 67 67 67 71 73 71 68 66 64 61 58
257 259 251 285 67 69 99 107 115 111 91 72 82 82 79 72 92 110 122 123 109 106 102 99 90 83 78 77 77 76 74 74 74 73 72 71 71 70 69 68 68 70 72 70 67 65 61 59 58
239 254 238 104 79 84 90 91 98 98 97 91 86 94 92 84 97 108 117 113 110 111 111 109 100 93 86 82 77 76 76 74 75 75 73 73 73 73 73 71 71 70 68 67 66 63 60 59 58
260 251 248 109 99 95 96 104 97 96 99 102 103 104 101 107 108 117 118 111 111 115 117 118 113 105 97 91 85 80 79 79 77 77 76 76 77 78 76 74 73 71 68 66 65 63 60 59 58
270 277 248 122 116 111 96 92 99 94 96 97 105 106 119 125 126 131 123 114 111 117 125 131 133 121 110 104 98 92 90 89 86 86 87 86 86 85 82 79 76 75 72 69 67 64 65 64 59
279 286 284 116 119 107 97 87 83 88 85 92 97 111 131 136 141 134 125 119 117 120 126 129 132 135 132 122 115 111 106 105 104 102 101 100 104 99 93 87 83 81 79 75 71 68 67 68 63
268 274 295 51 95 104 111 106 102 97 91 92 83 88 119 134 141 138 133 123 116 121 127 125 128 132 132 129 126 131 127 128 133 139 133 125 119 110 97 92 93 89 85 79 72 69 72 72 69
214 246 57 317 89 92 101 99 122 129 121 110 106 106 122 137 148 151 153 148 138 136 126 126 132 128 122 123 137 149 144 146 162 144 137 130 93 98 99 108 106 103 95 87 76 69 74 76 70
166 188 176 214 95 102 110 91 106 137 140 143 135 134 140 150 158 161 159 146 130 121 121 128 127 124 127 128 135 135 131 143 143 116 117 101 98 109 110 124 114 112 105 82 63 51 41 65 63
200 211 205 163 127 158 163 149 171 110 99 121 136 144 150 161 164 164 154 138 130 123 122 123 129 127 127 122 120 123 115 120 98 78 101 96 87 90 101 108 105 100 90 75 58 46 50 56 57
206 222 191 179 189 201 175 176 188 179 125 134 139 142 155 161 166 162 150 143 141 138 139 135 136 127 120 114 127 119 94 91 103 72 84 100 96 87 92 96 87 77 74 68 46 44 52 51 46
206 230 224 208 202 201 203 204 208 203 168 168 157 155 159 166 172 163 154 152 149 147 150 146 146 132 125 118 106 100 105 89 90 85 86 103 101 94 89 81 79 75 75 64 61 60 59 57 51
213 222 230 225 216 209 217 227 211 198 188 184 176 166 167 170 170 168 162 153 151 148 144 144 144 134 119 109 111 109 103 100 89 81 57 85 95 97 93 78 69 61 66 59 53 55 51 62 62
226 224 227 216 214 211 223 236 197 187 192 191 182 167 172 175 177 174 164 155 152 144 141 147 152 141 125 122 123 116 112 108 103 94 54 68 92 95 91 79 71 70 67 59 59 62 54 54 58
227 230 226 217 217 214 217 232 188 190 198 197 189 177 175 177 181 176 168 158 154 151 151 155 148 142 135 135 128 118 123 115 110 102 87 54 92 102 97 91 83 76 77 64 59 66 70 62 57
243 246 248 237 213 222 224 228 202 199 205 206 192 184 181 183 182 175 167 159 156 154 156 156 152 149 144 140 127 113 103 114 120 116 107 73 68 96 105 109 91 83 82 71 65 68 57 62 58
273 267 268 261 234 239 238 233 219 202 205 208 198 192 188 184 179 171 166 162 159 160 159 157 155 152 146 142 134 134 142 142 127 128 129 120 97 90 96 93 84 88 95 98 90 84 65 48 51
261 263 265 265 245 254 253 250 231 205 210 205 203 199 192 183 175 169 166 167 170 170 169 161 157 153 147 143 148 154 146 140 130 122 124 134 124 108 118 121 119 109 108 95 98 99 74 360 48
258 263 270 278 275 261 259 254 228 205 204 200 204 199 195 185 175 169 171 171 169 171 170 167 163 156 154 151 142 133 116 121 134 147 151 150 140 136 130 134 137 141 141 145 146 136 133 204 312
261 265 271 269 267 264 249 260 218 196 195 193 193 188 186 180 170 165 166 168 168 170 169 169 166 162 159 156 155 161 161 172 186 168 171 172 172 161 166 172 152 151 143 148 169 157 157 151 276
273 278 268 267 268 270 261 258 230 190 195 184 173 171 174 175 168 167 167 166 167 168 168 172 171 168 164 166 163 171 170 178 177 166 168 176 178 173 168 170 167 160 157 166 164 143 154 164 182
265 268 261 253 256 256 251 252 235 199 182 166 161 156 159 158 162 165 160 155 162 158 157 170 174 174 169 170 169 175 174 176 174 174 173 183 182 185 180 172 168 173 174 172 171 169 173 184 178
244 253 258 241 229 239 236 236 196 145 133 123 138 141 137 134 143 152 154 155 157 161 165 174 178 179 175 176 180 179 180 184 184 180 185 183 180 181 195 171 175 193 190 172 168 174 188 183 184
247 243 251 267 270 275 256 225 152 131 123 115 107 114 114 119 125 124 131 142 155 163 168 177 183 184 181 183 189 183 181 184 181 183 179 182 181 180 176 170 182 199 185 172 161 168 185 189 202
257 246 258 272 278 275 253 213 153 132 128 133 125 117 120 120 126 132 126 128 141 156 168 181 184 188 186 186 191 187 182 180 179 184 180 174 171 173 174 176 184 195 190 189 169 182 198 190 200
245 268 269 260 275 274 269 248 212 165 150 137 122 115 115 117 117 119 122 129 132 144 162 167 172 184 184 185 190 185 185 182 179 174 178 177 173 174 180 184 187 191 194 196 186 196 217 204 200
235 242 255 263 258 269 278 278 83 107 106 99 98 99 103 108 110 111 109 122 130 133 146 158 172 177 182 185 187 187 188 185 182 180 180 175 174 173 183 191 196 192 194 197 190 195 202 210 209
253 255 260 267 276 271 269 263 74 76 81 85 81 82 90 99 107 114 118 125 130 137 145 155 173 177 181 184 185 186 184 185 186 186 183 179 180 182 189 191 199 197 195 196 195 204 199 197 205